Anderson, SC

10:49 PM EST on December 02, 2016 (GMT -0500)
Anderson Regional

Weather History for KAND - May, 2013

Change the Weather History Date:

Thursday, May 23, 2013

  Actual Average Record
Temperature  
Mean Temperature 73 °F -  
Max Temperature 82 °F 82 °F 95 °F (1956)
Min Temperature 64 °F 61 °F 44 °F (2002)
Cooling Degree Days 8    
Growing Degree Days 23 (Base 50)    
Moisture  
Dew Point 63 °F    
Average Humidity 80    
Maximum Humidity 100    
Minimum Humidity 47    
Precipitation  
Precipitation 0.53 in - - ()
Sea Level Pressure  
Sea Level Pressure 29.93 in    
Wind  
Wind Speed 5 mph (SW)    
Max Wind Speed 20 mph    
Max Gust Speed 28 mph    
Visibility 9 miles    
Events Rain , Thunderstorm    
Averages and records for this station are not official NWS values.
T = Trace of Precipitation, MM = Missing Value Source: NWS Daily Summary

Daily Weather History Graph

Daily Weather History Graph

Search for Another Location

Airport or City:

Trip Planner

Search our weather history database for the weather conditions in past years. The results will help you decide how hot, cold, wet, or windy it might be!

Date:

Astronomy

May. 23, 2013 Rise Set
Actual Time 6:23 AM EDT 8:32 PM EDT
Civil Twilight 5:54 AM EDT 9:01 PM EDT
Nautical Twilight 5:19 AM EDT 9:35 PM EDT
Astronomical Twilight 4:42 AM EDT 10:13 PM EDT
Moon 7:06 PM EDT (5/23) 5:02 AM EDT (5/23)
Length of Visible Light 15h 06m
Length of Day
14h 09m
Waxing Gibbous, 97% of the Moon is Illuminated
May 23
Waxing Gibbous
May 25
Full
May 31
Last Quarter
Jun 8
New
Jun 16
First Quarter

Hourly Weather History & Observations

Time (EDT) Temp. Heat Index Dew Point Humidity Pressure Visibility Wind Dir Wind Speed Gust Speed Precip Events Conditions
12:02 AM 64.4 °F - 64.4 °F 100% 29.98 in 1.8 mi Calm Calm - 0.09 in Rain , Thunderstorm Heavy Rain
12:12 AM 64.4 °F - 64.4 °F 100% 29.98 in 3.0 mi SSE 6.9 mph - 0.18 in Rain , Thunderstorm Heavy Thunderstorms and Rain
12:56 AM 64.9 °F - 64.0 °F 97% 29.94 in 5.0 mi South 6.9 mph - 0.39 in Rain , Thunderstorm Thunderstorms and Rain
1:44 AM 64.4 °F - 62.6 °F 94% 29.95 in 9.0 mi Calm Calm - 0.07 in Rain , Thunderstorm Light Rain
1:56 AM 64.0 °F - 63.0 °F 96% 29.92 in 8.0 mi ENE 4.6 mph - 0.09 in Rain , Thunderstorm Rain
2:05 AM 64.4 °F - 64.4 °F 100% 29.96 in 10.0 mi Calm Calm - 0.00 in Rain Light Rain
2:56 AM 64.9 °F - 63.0 °F 93% 29.94 in 10.0 mi NNW 5.8 mph - 0.01 in   Overcast
3:38 AM 64.4 °F - 64.4 °F 100% 29.96 in 9.0 mi Calm Calm - 0.02 in Rain Light Rain
3:56 AM 64.9 °F - 64.0 °F 97% 29.94 in 10.0 mi SSE 3.5 mph - 0.02 in   Overcast
4:21 AM 64.4 °F - 64.4 °F 100% 29.95 in 10.0 mi East 4.6 mph - N/A   Overcast
4:56 AM 64.9 °F - 64.0 °F 97% 29.94 in 10.0 mi Calm Calm - 0.02 in Rain Light Rain
5:17 AM 64.4 °F - 64.4 °F 100% 29.96 in 10.0 mi Calm Calm - 0.00 in   Overcast
5:56 AM 64.9 °F - 64.0 °F 97% 29.93 in 9.0 mi Calm Calm - 0.00 in   Overcast
6:56 AM 64.9 °F - 64.0 °F 97% 29.95 in 8.0 mi South 3.5 mph - N/A   Overcast
7:56 AM 66.0 °F - 64.9 °F 96% 29.95 in 10.0 mi Calm Calm - N/A   Overcast
8:51 AM 66.2 °F - 64.4 °F 94% 29.97 in 10.0 mi SSW 4.6 mph - N/A   Overcast
8:56 AM 66.0 °F - 64.9 °F 96% 29.96 in 10.0 mi SW 5.8 mph - N/A   Overcast
9:05 AM 66.2 °F - 64.4 °F 94% 29.98 in 10.0 mi SSW 4.6 mph - N/A   Overcast
9:56 AM 66.9 °F - 66.0 °F 97% 29.95 in 10.0 mi SSW 4.6 mph - N/A   Overcast
10:56 AM 70.0 °F - 66.9 °F 90% 29.95 in 10.0 mi WSW 4.6 mph - N/A   Overcast
11:21 AM 71.6 °F - 66.2 °F 83% 29.97 in 10.0 mi SW 4.6 mph - N/A   Mostly Cloudy
11:54 AM 73.4 °F - 66.2 °F 78% 29.97 in 10.0 mi WSW 5.8 mph - N/A   Mostly Cloudy
11:56 AM 73.9 °F - 66.0 °F 76% 29.95 in 10.0 mi Variable 4.6 mph - N/A   Mostly Cloudy
12:54 PM 77.0 °F - 66.2 °F 69% 29.96 in 10.0 mi SW 8.1 mph - N/A   Scattered Clouds
12:56 PM 77.0 °F - 66.9 °F 71% 29.93 in 10.0 mi SW 9.2 mph - N/A   Partly Cloudy
1:56 PM 80.1 °F 81.9 °F 64.9 °F 60% 29.91 in 10.0 mi WNW 10.4 mph - N/A   Partly Cloudy
2:56 PM 81.0 °F 81.9 °F 62.1 °F 52% 29.90 in 10.0 mi WSW 8.1 mph - N/A   Partly Cloudy
3:56 PM 82.9 °F 83.7 °F 62.1 °F 49% 29.88 in 10.0 mi WSW 13.8 mph - N/A   Clear
4:56 PM 82.9 °F 83.7 °F 62.1 °F 49% 29.86 in 10.0 mi SW 17.3 mph 26.5 mph N/A   Clear
5:56 PM 82.9 °F 83.7 °F 62.1 °F 49% 29.85 in 10.0 mi WSW 15.0 mph - N/A   Clear
6:56 PM 81.0 °F 81.3 °F 59.0 °F 47% 29.85 in 10.0 mi WSW 12.7 mph 19.6 mph N/A   Clear
7:56 PM 78.1 °F - 61.0 °F 56% 29.86 in 10.0 mi West 9.2 mph - N/A   Clear
8:56 PM 75.0 °F - 57.0 °F 53% 29.87 in 10.0 mi WNW 6.9 mph - N/A   Clear
9:56 PM 73.9 °F - 55.9 °F 53% 29.89 in 10.0 mi WNW 19.6 mph 27.6 mph N/A   Clear
10:56 PM 72.0 °F - 54.0 °F 53% 29.91 in 10.0 mi West 13.8 mph 19.6 mph N/A   Clear
11:56 PM 70.0 °F - 55.0 °F 59% 29.92 in 10.0 mi West 8.1 mph - N/A   Clear